Regional Weather Roundup
Issued by NWS

Home | Current Version | Previous Version | Graphics & Text | Print | Product List | Glossary On
Versions: 1 2 3 4 5 6 7 8 9 10 11 12 13 14 15 16 17 18 19 20 21 22 23 24 25 26 27 28 29 30 31 32 33 34 35 36 37 38 39 40 41 42 43 44 45 46 47 48 49 50
000
ASUS43 KMPX 220910
RWRMN
WEATHER ROUNDUP FOR MINNESOTA
NATIONAL WEATHER SERVICE TWIN CITIES/CHANHASSEN MN
400 AM CDT FRI JUL 22 2016


NOTE: "FAIR" INDICATES FEW OR NO CLOUDS BELOW 12,000 FEET WITH NO
SIGNIFICANT WEATHER AND/OR OBSTRUCTIONS TO VISIBILITY. N/A MEANS
CURRENT SKY AND/OR WEATHER CONDITIONS ARE NOT AVAILABLE.

MNZ060>063-068>070-221000-
   Twin Cities Metro

CITY           SKY/WX    TMP DP  RH WIND       PRES   REMARKS
TWIN CITIES    PTCLDY    77  68  73 CALM      29.97F
ST PAUL        PTCLDY    72  69  90 CALM      29.97F
CRYSTAL        PTCLDY    70  66  87 CALM      29.96F
BLAINE         CLEAR     70  68  94 CALM      29.98F
LAKEVILLE      CLOUDY    72  72 100 CALM      29.98S
EDEN PRAIRIE   MOCLDY    75  68  78 NE7       29.96F
LAKEVILLE      CLOUDY    72  72 100 CALM      29.98S
SOUTH ST PAUL  PTCLDY    74  69  85 CALM      29.97S
LAKE ELMO      FOG       66  64  94 CALM      29.99S VSB 3/4
$$
MNZ001>005-007-008-013>017-022>024-027-028-221000-
   Northwest Minnesota

CITY           SKY/WX    TMP DP  RH WIND       PRES   REMARKS
BEMIDJI        CLEAR     63  63 100 CALM      29.99R
HALLOCK        CLEAR     64  63  94 W3        29.94R
ROSEAU         CLEAR     70  63  78 W5        29.94R
WARROAD        CLEAR     66  63  88 W8        29.94S
THIEF RVR FALL CLEAR     67  63  87 W6        29.98R
CROOKSTON      PTCLDY    70  66  88 CALM      29.97R
FOSSTON        CLEAR     63  63 100 S6        30.00R
DETROIT LAKES  PTCLDY    68  64  88 CALM      30.02R
MOORHEAD       CLEAR     66  64  94 CALM      29.98R
PARK RAPIDS    CLEAR     67  64  90 CALM      29.99F
MAHNOMEN       FAIR      66  65  96 S5        29.99R
$$
MNZ006-009>011-018-025>026-221000-
   North Central Minnesota

CITY           SKY/WX    TMP DP  RH WIND       PRES   REMARKS
BAUDETTE       CLEAR     62  59  90 W3        29.93R
FLAG ISLAND    CLEAR     72  61  68 W14       29.90R
INTL FALLS     CLEAR     59  56  89 SW3       29.93S
WASKISH        CLEAR     63  61  94 CALM      29.95S
BIG FORK       PTCLDY    59  57  94 CALM      29.98R FOG
GRAND RAPIDS   CLEAR     63  62  97 CALM      30.01S
ORR            CLEAR     59  55  88 CALM      29.94S
COOK           CLEAR     59  57  94 CALM      29.98S
WALKER         FAIR      62  61  98 CALM      29.99S
$$
MNZ012-019>021-037-221000-
   Northeast Minnesota

CITY           SKY/WX    TMP DP  RH WIND       PRES   REMARKS
DULUTH         CLOUDY    66  61  84 NW3       30.00R
ELY            CLEAR     61  57  88 CALM      29.97S
HIBBING        CLEAR     55  55 100 CALM      29.99S FOG
EVELETH        CLEAR     58  57  97 CALM      30.00S FOG
DULUTH HARBOR  CLOUDY    68  64  88 SW5       29.97R
TWO HARBORS    CLOUDY    66  63  88 NW5       29.96S
SILVER BAY     CLEAR     59  57  94 CALM      29.96S
GRAND MARAIS     N/A     60  56  86 W5        29.92R
G MARAIS ARPRT CLEAR     64  55  72 W5        29.97R
$$
MNZ029>031-032-039>041-046>048-054>057-064-221000-
   West Central Minnesota

CITY           SKY/WX    TMP DP  RH WIND       PRES   REMARKS
FERGUS FALLS   CLEAR     70  64  83 E6        30.00S
WHEATON        CLEAR     68  68 100 N3        30.00R
MORRIS         CLEAR     70  66  88 SE7       29.94F
ALEXANDRIA     CLEAR     69  63  81 E6        30.00F
ELBOW LAKE     FAIR      70  67  89 NE3       29.99R
WADENA         CLEAR     61  61 100 CALM      29.99S
GLENWOOD       CLEAR     66  64  94 SE8       29.98F
APPLETON       PTCLDY    73  70  88 SE7       29.94F
BENSON         CLEAR     70  66  88 SE7       29.96F
ORTONVILLE     DRZL/FOG  73  72  94 SE6       29.94F VSB 1/4
MADISON        FOG       68  66  94 SE7       29.96F VSB 1/4
WILLMAR        FOG       72  70  94 E3        30.00S VSB 3/4
$$
MNZ033>034-036-042>043-049>051-058-059-221000-
   Central Minnesota

CITY           SKY/WX    TMP DP  RH WIND       PRES   REMARKS
ST CLOUD       CLEAR     67  67 100 CALM      29.99S
SAUK CENTRE    FAIR      63  62  99 CALM      29.99F
PAYNESVILLE    CLEAR     64  64 100 CALM      30.00S
AITKIN         HAZE      64  59  82 CALM      29.99S VSB 1/2
PINE RIVER     CLEAR     61  61 100 CALM      30.03S
BRAINERD       CLEAR     63  63 100 CALM      30.00F FOG
STAPLES        CLEAR     64  63  94 CALM      29.99S
LONG PRAIRIE   FAIR      63  61  94 CALM      29.99F
LITTLE FALLS   CLEAR     63  61  94 CALM      29.99F FOG
LITCHFIELD     PTCLDY    73  73 100 CALM      30.00S
BUFFALO        CLEAR     70  66  89 CALM      30.00S
MAPLE LAKE     CLEAR     71  71  98 CALM      30.00S FOG
HUTCHINSON     CLEAR     71  71  99 CALM      30.00S FOG
$$
MNZ037-044-045-052-053-221000-
   East Central Minnesota

CITY           SKY/WX    TMP DP  RH WIND       PRES   REMARKS
PRINCETON        N/A     66  66 100 CALM      30.00R FOG
MORA           PTCLDY    64  64 100 CALM      30.01S FOG
CAMBRIDGE      PTCLDY    72  64  78 CALM      29.98R
RUSH CITY      CLOUDY    64  63  94 CALM      30.00S
MOOSE LAKE     CLOUDY    61  59  94 CALM      29.98F
HINCKLEY       FAIR      63  63 100 CALM      29.99F
CLOQUET        CLOUDY    64  59  82 W3        30.00S
MCGREGOR       CLOUDY    64  61  88 CALM      30.00F
$$
MNZ071>073-080-081-089-090-097-098-221000-
   Southwest Minnesota

CITY           SKY/WX    TMP DP  RH WIND       PRES   REMARKS
MONTEVIDEO     MOCLDY    68  66  94 SE3       29.99F FOG
GRANITE FALLS  CLEAR     73  71  94 NE3       29.99F
CANBY          FOG       70  69  96 CALM      29.99F VSB 1/2
MARSHALL       CLEAR     72  71  97 CALM      29.99S
REDWOOD FALLS  CLEAR     72  69  90 N3        29.97S
OLIVIA         CLEAR     70  66  88 NE3       29.98S
PIPESTONE      CLEAR     79  72  78 E6        30.00S
WINDOM         CLEAR     75  73  94 NE5       29.99S
WORTHINGTON    CLEAR     76  75  97 NE5       29.99F
JACKSON        CLEAR     77  73  88 E7        29.98F
TRACY          CLEAR     75  73  93 CALM      29.99S
SLAYTON        CLOUDY    75  72  92 CALM      30.01S
$$
MNZ065>067-074>077-082>085-091>093-221000-
   South Central Minnesota

CITY           SKY/WX    TMP DP  RH WIND       PRES   REMARKS
MANKATO        CLOUDY    79  72  78 E7        29.97S
NEW ULM        PTCLDY    77  72  83 E5        29.97S
ST JAMES       MOCLDY    72  70  94 CALM      29.98S
FAIRMONT         N/A    N/A N/A N/A MISG        N/A
GLENCOE        CLEAR     71  71 100 CALM      29.98S
FARIBAULT      PTCLDY    73  72  94 CALM      29.98F
OWATONNA       CLOUDY    77  72  83 NE5       29.98F
WASECA         CLOUDY    77  72  83 NE5       29.98F
ALBERT LEA     CLOUDY    75  75 100 CALM      29.97F FOG
$$
MNZ078>079-086>088-094>096-221000-
   Southeast Minnesota

CITY           SKY/WX    TMP DP  RH WIND       PRES   REMARKS
ROCHESTER      FOG       77  76  96 S5        29.98F VSB 1/4
RED WING       MOCLDY    72  72 100 CALM      29.96S
STANTON        CLOUDY    72  70  94 CALM      29.97S
DODGE CENTER   FOG       75  73  94 N5        29.98F VSB<1/4
WINONA         MOCLDY    73  72  94 CALM      29.97S
AUSTIN         CLOUDY    75  73  94 SE5       29.98S FOG
PRESTON        CLOUDY    74  71  89 SW6       29.99S
$$
ABBREVIATIONS USED IN REMARKS
   TC - TEMPERATURES IN CELSIUS
  WCI - WIND CHILL INDEX
   HX - HEAT INDEX
  VSB - VISIBILITY
$$




USA.gov is the U.S. government's official web portal to all federal, state and local government web resources and services.